CW8198 Weather Reports


Display with metric or nautical units.
time (UTC)temp
F
wind
direction
speed
MPH
gust
MPH
rain 1hr
in
rain 24hr
in
rain mn
in
humidity
%
barometer
mb
20220813112822 76 196 2.0 6.0 0.00 0.02 0.00 67 1014.8
20220813112323 76 176 3.0 7.0 0.00 0.02 0.00 68 1014.8
20220813111323 76 176 2.0 5.0 0.00 0.02 0.00 68 1014.8
20220813105821 76 192 1.0 4.0 0.00 0.02 0.00 68 1014.8
20220813105325 76 176 2.0 3.0 0.00 0.02 0.00 68 1014.9
20220813104820 76 176 2.0 4.0 0.00 0.02 0.00 68 1014.9
20220813104320 76 173 2.0 4.0 0.00 0.02 0.00 68 1014.8
20220813103822 76 189 2.0 4.0 0.00 0.02 0.00 68 1014.9
20220813102321 76 179 1.0 5.0 0.00 0.02 0.00 68 1014.9
20220813101820 76 117 2.0 5.0 0.00 0.02 0.00 68 1014.8
20220813101320 76 162 2.0 4.0 0.00 0.02 0.00 68 1014.9
20220813100320 76 151 2.0 5.0 0.00 0.02 0.00 68 1014.9
20220813095320 76 183 2.0 5.0 0.00 0.02 0.00 68 1015.0
20220813094821 76 157 3.0 5.0 0.00 0.02 0.00 68 1015.0
20220813093320 76 134 3.0 7.0 0.00 0.02 0.00 68 1014.9
20220813092319 76 183 2.0 5.0 0.00 0.02 0.00 69 1015.0
20220813091818 75 178 4.0 6.0 0.00 0.02 0.00 70 1015.1
20220813084819 76 161 2.0 5.0 0.00 0.02 0.00 70 1015.0
20220813084318 76 151 3.0 4.0 0.00 0.02 0.00 70 1015.0
20220813083821 76 165 3.0 5.0 0.00 0.02 0.00 70 1015.0
20220813082320 76 121 4.0 6.0 0.00 0.02 0.00 69 1015.0
20220813074817 76 172 5.0 9.0 0.00 0.02 0.00 67 1014.9
20220813074318 77 169 3.0 7.0 0.00 0.02 0.00 66 1015.0
20220813073818 77 179 5.0 7.0 0.00 0.02 0.00 66 1015.0
20220813072816 77 154 4.0 7.0 0.00 0.02 0.00 65 1015.0
20220813071816 77 148 4.0 7.0 0.00 0.02 0.00 65 1015.0
20220813070816 77 159 3.0 6.0 0.00 0.02 0.00 64 1015.0
20220813064816 78 155 5.0 13.0 0.00 0.02 0.00 63 1014.7
20220813064316 78 154 5.0 13.0 0.00 0.02 0.00 63 1014.7
20220813063815 78 117 6.0 12.0 0.00 0.02 0.00 62 1014.6
20220813063317 78 162 5.0 12.0 0.00 0.02 0.00 62 1015.0
20220813062317 78 147 4.0 10.0 0.00 0.02 0.00 61 1015.1
20220813061316 78 137 3.0 12.0 0.00 0.02 0.00 61 1014.8
20220813060815 78 148 5.0 12.0 0.00 0.02 0.00 60 1014.7
20220813060316 78 154 5.0 13.0 0.00 0.02 0.00 60 1014.6
20220813055816 78 164 7.0 13.0 0.00 0.02 0.00 60 1014.5
20220813055317 78 137 6.0 13.0 0.00 0.02 0.00 60 1014.5
20220813053316 78 149 5.0 10.0 0.00 0.02 0.00 57 1014.6
20220813052814 79 179 3.0 11.0 0.00 0.02 0.00 57 1014.6
20220813052316 79 159 4.0 13.0 0.00 0.02 0.00 57 1014.6
20220813045816 80 147 4.0 11.0 0.00 0.02 0.02 55 1014.6
20220813045314 80 125 4.0 11.0 0.00 0.02 0.02 54 1014.6
20220813044315 80 209 7.0 12.0 0.00 0.02 0.02 54 1014.5
20220813042813 80 130 7.0 12.0 0.00 0.02 0.02 54 1014.5
20220813041813 80 178 4.0 12.0 0.00 0.02 0.02 54 1014.4
20220813041312 80 182 5.0 12.0 0.00 0.02 0.02 54 1014.1
20220813040814 80 192 5.0 11.0 0.00 0.02 0.02 54 1014.1
20220813040312 80 111 6.0 18.0 0.00 0.02 0.02 54 1014.0
20220813035313 80 188 8.0 14.0 0.00 0.02 0.02 54 1014.4
20220813034812 81 214 6.0 14.0 0.00 0.02 0.02 54 1014.1
20220813033812 80 192 7.0 13.0 0.00 0.02 0.02 55 1014.3
20220813033314 80 152 7.0 12.0 0.00 0.02 0.02 56 1014.3
20220813032815 80 154 6.0 10.0 0.00 0.02 0.02 58 1014.1
20220813031813 80 121 5.0 12.0 0.00 0.02 0.02 60 1014.4
20220813031312 80 154 6.0 12.0 0.00 0.02 0.02 61 1014.4
20220813030811 80 140 5.0 11.0 0.00 0.02 0.02 61 1014.3
20220813030312 80 130 6.0 11.0 0.00 0.02 0.02 61 1014.4
20220813025312 80 142 6.0 13.0 0.00 0.02 0.02 60 1014.4
20220813024808 80 186 6.0 11.0 0.00 0.02 0.02 60 1014.4
20220813024309 80 135 6.0 11.0 0.00 0.02 0.02 60 1014.5
20220813023313 80 125 4.0 7.0 0.00 0.02 0.02 61 1014.7
20220813021810 81 148 2.0 6.0 0.00 0.02 0.02 60 1014.9
20220813013810 84 138 3.0 9.0 0.00 0.02 0.02 56 1014.7
20220813012310 85 117 3.0 10.0 0.00 0.02 0.02 54 1014.7
20220813011809 85 161 4.0 10.0 0.00 0.02 0.02 53 1014.7
20220813011310 86 176 4.0 7.0 0.00 0.02 0.02 52 1014.7
20220813010810 86 152 3.0 9.0 0.00 0.02 0.02 52 1014.7
20220813005810 87 140 4.0 10.0 0.00 0.02 0.02 48 1014.7
20220813005309 88 158 4.0 10.0 0.00 0.02 0.02 45 1014.8
20220813004809 89 157 3.0 9.0 0.00 0.02 0.02 39 1014.8
20220813003310 89 173 6.0 13.0 0.00 0.02 0.02 37 1014.8
20220813002808 90 186 6.0 13.0 0.00 0.02 0.02 37 1014.6
20220813001309 90 193 9.0 15.0 0.00 0.02 0.02 35 1014.6
20220813000808 90 186 5.0 16.0 0.00 0.02 0.02 35 1014.5
20220812235808 91 186 8.0 15.0 0.00 0.02 0.02 34 1014.5
20220812234808 91 92 6.0 15.0 0.00 0.02 0.02 34 1014.6
20220812234309 91 190 8.0 20.0 0.00 0.02 0.02 35 1014.7
20220812233308 91 169 9.0 17.0 0.00 0.02 0.02 33 1014.7
20220812232308 92 219 9.0 17.0 0.00 0.02 0.02 34 1014.9
20220812231307 92 200 6.0 16.0 0.00 0.02 0.02 34 1014.8
20220812230808 92 197 9.0 14.0 0.00 0.02 0.02 34 1014.8
20220812225806 92 193 6.0 16.0 0.00 0.02 0.02 33 1015.0
20220812225307 92 195 7.0 19.0 0.00 0.02 0.02 33 1014.9
20220812224806 92 125 10.0 19.0 0.00 0.02 0.02 33 1014.9
20220812224306 93 190 5.0 18.0 0.00 0.02 0.02 35 1015.0
20220812223806 92 200 9.0 18.0 0.00 0.02 0.02 34 1015.0
20220812222806 93 195 11.0 18.0 0.00 0.02 0.02 33 1015.2
20220812221805 92 134 7.0 16.0 0.00 0.02 0.02 34 1015.2
20220812220805 93 140 6.0 18.0 0.00 0.02 0.02 34 1015.3
20220812215806 93 227 6.0 19.0 0.00 0.02 0.02 33 1015.4
20220812214807 93 179 7.0 16.0 0.00 0.02 0.02 34 1015.5
20220812214305 93 210 7.0 18.0 0.00 0.02 0.02 32 1015.6
20220812213805 93 193 7.0 18.0 0.00 0.02 0.02 34 1015.7
20220812213306 92 221 11.0 18.0 0.00 0.02 0.02 34 1015.6
20220812212806 92 220 10.0 16.0 0.00 0.02 0.02 33 1015.7
20220812212307 92 193 10.0 18.0 0.00 0.02 0.02 34 1015.7
20220812211805 92 137 9.0 18.0 0.00 0.02 0.02 34 1015.7
20220812211305 93 140 8.0 18.0 0.00 0.02 0.02 34 1015.8
20220812210805 92 219 8.0 18.0 0.00 0.02 0.02 35 1015.8
20220812205804 92 169 11.0 20.0 0.00 0.02 0.02 32 1016.0
20220812204804 92 148 11.0 17.0 0.00 0.02 0.02 34 1016.1
20220812204303 92 161 9.0 17.0 0.00 0.02 0.02 35 1016.1
20220812203804 92 169 7.0 16.0 0.00 0.02 0.02 35 1016.0
20220812202805 92 180 6.0 18.0 0.00 0.02 0.02 37 1016.2
20220812201804 92 183 8.0 16.0 0.00 0.02 0.02 36 1016.4
20220812200803 92 175 9.0 16.0 0.00 0.02 0.02 36 1016.4
20220812200302 92 186 9.0 16.0 0.00 0.02 0.02 35 1016.6
20220812194802 91 164 8.0 17.0 0.00 0.02 0.02 37 1016.9
20220812193804 91 173 7.0 14.0 0.00 0.02 0.02 36 1016.9
20220812191304 91 144 7.0 14.0 0.00 0.02 0.02 40 1017.0
20220812190803 90 195 6.0 15.0 0.00 0.02 0.02 41 1017.0
20220812190304 90 179 7.0 15.0 0.00 0.02 0.02 41 1017.1
20220812183802 89 183 6.0 13.0 0.00 0.02 0.02 43 1017.2
20220812182801 89 148 6.0 14.0 0.00 0.02 0.02 41 1017.2
20220812180801 89 141 7.0 14.0 0.00 0.02 0.02 43 1017.7
20220812174300 88 217 7.0 12.0 0.00 0.02 0.02 46 1017.9
20220812172259 86 165 7.0 12.0 0.00 0.02 0.02 49 1018.3
20220812170759 86 207 7.0 12.0 0.00 0.02 0.02 49 1018.4
20220812170258 86 178 8.0 12.0 0.00 0.02 0.02 49 1018.4
20220812165759 85 149 4.0 11.0 0.00 0.02 0.02 50 1018.4
20220812164758 85 206 6.0 13.0 0.00 0.02 0.02 50 1018.6
20220812162801 84 169 5.0 12.0 0.00 0.02 0.02 54 1018.7
20220812162258 84 200 6.0 10.0 0.00 0.02 0.02 51 1018.9
20220812161757 84 169 4.0 9.0 0.00 0.02 0.02 54 1019.0
20220812161259 84 196 5.0 9.0 0.00 0.02 0.02 53 1018.9
20220812160258 83 185 4.0 9.0 0.00 0.02 0.02 53 1019.1
20220812155256 82 149 3.0 10.0 0.00 0.02 0.02 54 1019.2
20220812154754 82 179 3.0 12.0 0.00 0.02 0.02 56 1019.1
20220812153758 81 197 5.0 10.0 0.00 0.02 0.02 55 1019.2
20220812153258 81 166 4.0 7.0 0.00 0.02 0.02 57 1019.2
20220812152258 80 166 6.0 10.0 0.01 0.02 0.02 58 1019.3
20220812151756 80 173 7.0 10.0 0.01 0.02 0.02 57 1019.3
20220812151254 79 149 5.0 10.0 0.01 0.02 0.02 60 1019.3
20220812150254 78 207 4.0 10.0 0.01 0.02 0.02 61 1019.2
20220812145755 78 185 4.0 10.0 0.01 0.02 0.02 61 1019.4
20220812142755 75 134 5.0 12.0 0.01 0.02 0.02 67 1019.3
20220812140756 76 152 4.0 7.0 0.00 0.01 0.01 65 1019.4
20220812140256 76 157 4.0 9.0 0.00 0.01 0.01 66 1019.3
20220812134754 74 193 3.0 6.0 0.01 0.01 0.01 69 1019.3
20220812134255 74 157 2.0 11.0 0.01 0.01 0.01 70 1019.3
20220812132754 71 197 4.0 9.0 0.01 0.01 0.01 74 1019.3
20220812130754 69 197 3.0 7.0 0.01 0.01 0.01 77 1019.3
20220812125753 69 185 3.0 7.0 0.01 0.01 0.01 78 1019.1
20220812125254 69 173 5.0 7.0 0.00 0.00 0.00 78 1019.1
20220812124754 69 202 4.0 6.0 0.00 0.00 0.00 78 1019.1
20220812122755 69 175 2.0 2.0 0.00 0.00 0.00 78 1019.2
20220812120252 70 166 2.0 4.0 0.00 0.00 0.00 78 1019.2
20220812115753 70 168 2.0 4.0 0.00 0.00 0.00 79 1019.2
20220812114752 69 131 2.0 3.0 0.00 0.00 0.00 80 1019.0
20220812114253 69 124 2.0 4.0 0.00 0.00 0.00 80 1018.9